owner,sensor,date,latitude,longitude,vertical_datum,direction_of_sea_water_velocity,sea_water_speed,upward_sea_water_velocity,qcFlag 
TABS,ioos:station:wmo:42051:1,2011-10-01T00:00:00Z,29.6350,-93.6417,2.0,258.0562294,13.48184705,-99999.0,'11111222,11111222,99999999' 
TABS,ioos:station:wmo:42051:1,2011-10-01T00:30:00Z,29.6350,-93.6417,2.0,256.9092012,17.48435015,-99999.0,'11111222,11111222,99999999' 
TABS,ioos:station:wmo:42051:1,2011-10-01T01:00:00Z,29.6350,-93.6417,2.0,265.139976,12.39455526,-99999.0,'11111222,11111222,99999999' 
TABS,ioos:station:wmo:42051:1,2011-10-01T01:30:00Z,29.6350,-93.6417,2.0,249.9534392,7.760135308,-99999.0,'11133222,11111222,99999999' 
TABS,ioos:station:wmo:42051:1,2011-10-01T02:00:00Z,29.6350,-93.6417,2.0,267.095767,5.527096887,-99999.0,'11133222,11111222,99999999' 
TABS,ioos:station:wmo:42051:1,2011-10-01T02:30:00Z,29.6350,-93.6417,2.0,227.0469612,7.719462417,-99999.0,'11133222,11111222,99999999' 
TABS,ioos:station:wmo:42051:1,2011-10-01T03:00:00Z,29.6350,-93.6417,2.0,251.2783077,8.225186928,-99999.0,'11133222,11111222,99999999' 
TABS,ioos:station:wmo:42051:1,2011-10-01T03:30:00Z,29.6350,-93.6417,2.0,248.5413042,8.993386459,-99999.0,'11133222,11111222,99999999' 
TABS,ioos:station:wmo:42051:1,2011-10-01T04:00:00Z,29.6350,-93.6417,2.0,233.8843406,6.22653997,-99999.0,'11133222,11111222,99999999' 
TABS,ioos:station:wmo:42051:1,2011-10-01T04:30:00Z,29.6350,-93.6417,2.0,267.5248543,6.716263842,-99999.0,'11133222,11111222,99999999' 
TABS,ioos:station:wmo:42051:1,2011-10-01T05:00:00Z,29.6350,-93.6417,2.0,271.6647172,4.131742974,-99999.0,'11133222,11111222,99999999' 
TABS,ioos:station:wmo:42051:1,2011-10-01T05:30:00Z,29.6350,-93.6417,2.0,242.8606091,4.910651688,-99999.0,'11133222,11111222,99999999' 
TABS,ioos:station:wmo:42051:1,2011-10-01T06:00:00Z,29.6350,-93.6417,2.0,220.3115115,5.796455814,-99999.0,'11133222,11111222,99999999' 
TABS,ioos:station:wmo:42051:1,2011-10-01T06:30:00Z,29.6350,-93.6417,2.0,239.78645,6.677012805,-99999.0,'11133222,11111222,99999999' 
TABS,ioos:station:wmo:42051:1,2011-10-01T07:00:00Z,29.6350,-93.6417,2.0,268.8599537,13.07258582,-99999.0,'11111222,11111222,99999999' 
TABS,ioos:station:wmo:42051:1,2011-10-01T07:30:00Z,29.6350,-93.6417,2.0,257.7894384,12.48237157,-99999.0,'11111222,11111222,99999999' 
TABS,ioos:station:wmo:42051:1,2011-10-01T08:00:00Z,29.6350,-93.6417,2.0,261.9046034,13.8479818,-99999.0,'11111222,11111222,99999999' 
TABS,ioos:station:wmo:42051:1,2011-10-01T08:30:00Z,29.6350,-93.6417,2.0,276.8522274,15.08775663,-99999.0,'11111222,11111222,99999999' 
TABS,ioos:station:wmo:42051:1,2011-10-01T09:00:00Z,29.6350,-93.6417,2.0,268.2439404,18.27858036,-99999.0,'11111222,11111222,99999999' 
TABS,ioos:station:wmo:42051:1,2011-10-01T09:30:00Z,29.6350,-93.6417,2.0,266.0747315,21.33002579,-99999.0,'11111222,11111222,99999999' 
TABS,ioos:station:wmo:42051:1,2011-10-01T10:00:00Z,29.6350,-93.6417,2.0,268.6808219,17.81471863,-99999.0,'11111222,11111222,99999999' 
TABS,ioos:station:wmo:42051:1,2011-10-01T10:30:00Z,29.6350,-93.6417,2.0,254.6540293,16.66412314,-99999.0,'11111222,11111222,99999999' 
TABS,ioos:station:wmo:42051:1,2011-10-01T11:00:00Z,29.6350,-93.6417,2.0,257.9705186,18.281425,-99999.0,'11111222,11111222,99999999' 
TABS,ioos:station:wmo:42051:1,2011-10-01T11:30:00Z,29.6350,-93.6417,2.0,256.1978383,21.33603759,-99999.0,'11111222,11111222,99999999' 
TABS,ioos:station:wmo:42051:1,2011-10-01T12:00:00Z,29.6350,-93.6417,2.0,267.2271374,20.6741989,-99999.0,'11111222,11111222,99999999' 
TABS,ioos:station:wmo:42051:1,2011-10-01T12:30:00Z,29.6350,-93.6417,2.0,262.6994101,23.53073947,-99999.0,'11111222,11111222,99999999' 
TABS,ioos:station:wmo:42051:1,2011-10-01T13:00:00Z,29.6350,-93.6417,2.0,261.9025764,24.49418298,-99999.0,'11111222,11111222,99999999' 
TABS,ioos:station:wmo:42051:1,2011-10-01T13:30:00Z,29.6350,-93.6417,2.0,261.5584078,22.13983966,-99999.0,'11111222,11111222,99999999' 
TABS,ioos:station:wmo:42051:1,2011-10-01T14:00:00Z,29.6350,-93.6417,2.0,254.1894426,24.44475404,-99999.0,'11111222,11111222,99999999' 
TABS,ioos:station:wmo:42051:1,2011-10-01T14:30:00Z,29.6350,-93.6417,2.0,248.7244625,24.05970282,-99999.0,'11111222,11111222,99999999' 
TABS,ioos:station:wmo:42051:1,2011-10-01T15:00:00Z,29.6350,-93.6417,2.0,260.9298812,18.71397606,-99999.0,'11111222,11111222,99999999' 
TABS,ioos:station:wmo:42051:1,2011-10-01T15:30:00Z,29.6350,-93.6417,2.0,257.6165234,23.45568161,-99999.0,'11111222,11111222,99999999' 
TABS,ioos:station:wmo:42051:1,2011-10-01T16:00:00Z,29.6350,-93.6417,2.0,250.7701255,21.4359791,-99999.0,'11111222,11111222,99999999' 
TABS,ioos:station:wmo:42051:1,2011-10-01T16:30:00Z,29.6350,-93.6417,2.0,266.5457879,20.41708353,-99999.0,'11111222,11111222,99999999' 
TABS,ioos:station:wmo:42051:1,2011-10-01T17:00:00Z,29.6350,-93.6417,2.0,259.5344211,23.0128073,-99999.0,'11111222,11111222,99999999' 
TABS,ioos:station:wmo:42051:1,2011-10-01T17:30:00Z,29.6350,-93.6417,2.0,263.5769706,22.25970575,-99999.0,'11111222,11111222,99999999' 
TABS,ioos:station:wmo:42051:1,2011-10-01T18:00:00Z,29.6350,-93.6417,2.0,263.8509271,21.47353022,-99999.0,'11111222,11111222,99999999' 
TABS,ioos:station:wmo:42051:1,2011-10-01T18:30:00Z,29.6350,-93.6417,2.0,273.0182344,23.93319034,-99999.0,'11111222,11111222,99999999' 
TABS,ioos:station:wmo:42051:1,2011-10-01T19:00:00Z,29.6350,-93.6417,2.0,272.8913634,18.04296262,-99999.0,'11111222,11111222,99999999' 
TABS,ioos:station:wmo:42051:1,2011-10-01T19:30:00Z,29.6350,-93.6417,2.0,269.6978815,20.89028961,-99999.0,'11111222,11111222,99999999' 
TABS,ioos:station:wmo:42051:1,2011-10-01T20:00:00Z,29.6350,-93.6417,2.0,277.4778842,23.59061254,-99999.0,'11111222,11111222,99999999' 
TABS,ioos:station:wmo:42051:1,2011-10-01T20:30:00Z,29.6350,-93.6417,2.0,278.1154145,26.84884541,-99999.0,'11111222,11111222,99999999' 
TABS,ioos:station:wmo:42051:1,2011-10-01T21:00:00Z,29.6350,-93.6417,2.0,274.8116483,25.99158325,-99999.0,'11111222,11111222,99999999' 
TABS,ioos:station:wmo:42051:1,2011-10-01T21:30:00Z,29.6350,-93.6417,2.0,278.5530038,22.05526014,-99999.0,'11111222,11111222,99999999' 
TABS,ioos:station:wmo:42051:1,2011-10-01T22:00:00Z,29.6350,-93.6417,2.0,279.8169151,23.40264301,-99999.0,'11111222,11111222,99999999' 
TABS,ioos:station:wmo:42051:1,2011-10-01T22:30:00Z,29.6350,-93.6417,2.0,288.7117541,24.25178962,-99999.0,'11111222,11111222,99999999' 
TABS,ioos:station:wmo:42051:1,2011-10-01T23:00:00Z,29.6350,-93.6417,2.0,280.9695355,24.06975903,-99999.0,'11111222,11111222,99999999' 
TABS,ioos:station:wmo:42051:1,2011-10-01T23:30:00Z,29.6350,-93.6417,2.0,281.4076204,21.943466,-99999.0,'11111222,11111222,99999999' 
TABS,ioos:station:wmo:42051:1,2011-10-02T00:00:00Z,29.6350,-93.6417,2.0,273.8919086,21.65993998,-99999.0,'11111222,11111222,99999999' 
TABS,ioos:station:wmo:42051:1,2011-10-02T00:30:00Z,29.6350,-93.6417,2.0,267.7021745,20.20624161,-99999.0,'11111222,11111222,99999999' 
TABS,ioos:station:wmo:42051:1,2011-10-02T01:00:00Z,29.6350,-93.6417,2.0,274.5167196,19.43033196,-99999.0,'11111222,11111222,99999999' 
TABS,ioos:station:wmo:42051:1,2011-10-02T01:30:00Z,29.6350,-93.6417,2.0,276.1663415,14.52402148,-99999.0,'11111222,11111222,99999999' 
TABS,ioos:station:wmo:42051:1,2011-10-02T02:00:00Z,29.6350,-93.6417,2.0,266.2134759,10.9037975,-99999.0,'11111222,11111222,99999999' 
TABS,ioos:station:wmo:42051:1,2011-10-02T02:30:00Z,29.6350,-93.6417,2.0,257.7753999,10.20129894,-99999.0,'11111222,11111222,99999999' 
TABS,ioos:station:wmo:42051:1,2011-10-02T03:00:00Z,29.6350,-93.6417,2.0,240.2850478,14.08166538,-99999.0,'11111222,11111222,99999999' 
TABS,ioos:station:wmo:42051:1,2011-10-02T03:30:00Z,29.6350,-93.6417,2.0,256.7738077,13.37475233,-99999.0,'11111222,11111222,99999999' 
TABS,ioos:station:wmo:42051:1,2011-10-02T04:00:00Z,29.6350,-93.6417,2.0,262.9932038,7.788157677,-99999.0,'11133222,11111222,99999999' 
TABS,ioos:station:wmo:42051:1,2011-10-02T04:30:00Z,29.6350,-93.6417,2.0,248.7678076,6.351094394,-99999.0,'11133222,11111222,99999999' 
TABS,ioos:station:wmo:42051:1,2011-10-02T05:00:00Z,29.6350,-93.6417,2.0,256.5006859,6.982907704,-99999.0,'11133222,11111222,99999999' 
TABS,ioos:station:wmo:42051:1,2011-10-02T05:30:00Z,29.6350,-93.6417,2.0,223.5946012,7.497586278,-99999.0,'11133222,11111222,99999999' 
TABS,ioos:station:wmo:42051:1,2011-10-02T06:00:00Z,29.6350,-93.6417,2.0,229.2868129,5.013272384,-99999.0,'11133222,11111222,99999999' 
TABS,ioos:station:wmo:42051:1,2011-10-02T06:30:00Z,29.6350,-93.6417,2.0,288.4353266,3.636619309,-99999.0,'11133222,11111222,99999999' 
TABS,ioos:station:wmo:42051:1,2011-10-02T07:00:00Z,29.6350,-93.6417,2.0,271.7361214,2.971363323,-99999.0,'11133222,11111222,99999999' 
TABS,ioos:station:wmo:42051:1,2011-10-02T07:30:00Z,29.6350,-93.6417,2.0,262.4725855,3.358943286,-99999.0,'11133222,11111222,99999999' 
TABS,ioos:station:wmo:42051:1,2011-10-02T08:00:00Z,29.6350,-93.6417,2.0,308.2019244,5.077371367,-99999.0,'11133222,11111222,99999999' 
TABS,ioos:station:wmo:42051:1,2011-10-02T08:30:00Z,29.6350,-93.6417,2.0,285.8869182,6.685342175,-99999.0,'11133222,11111222,99999999' 
TABS,ioos:station:wmo:42051:1,2011-10-02T09:00:00Z,29.6350,-93.6417,2.0,279.2267436,7.983282533,-99999.0,'11133222,11111222,99999999' 
TABS,ioos:station:wmo:42051:1,2011-10-02T09:30:00Z,29.6350,-93.6417,2.0,283.8991123,11.11543971,-99999.0,'11111222,11111222,99999999' 
TABS,ioos:station:wmo:42051:1,2011-10-02T10:00:00Z,29.6350,-93.6417,2.0,270.3262253,12.31019902,-99999.0,'11111222,11111222,99999999' 
TABS,ioos:station:wmo:42051:1,2011-10-02T10:30:00Z,29.6350,-93.6417,2.0,260.2112039,12.99923844,-99999.0,'11111222,11111222,99999999' 
TABS,ioos:station:wmo:42051:1,2011-10-02T11:00:00Z,29.6350,-93.6417,2.0,263.9929828,12.51872997,-99999.0,'11111222,11111222,99999999' 
TABS,ioos:station:wmo:42051:1,2011-10-02T11:30:00Z,29.6350,-93.6417,2.0,267.6084029,13.66189592,-99999.0,'11111222,11111222,99999999' 
TABS,ioos:station:wmo:42051:1,2011-10-02T12:00:00Z,29.6350,-93.6417,2.0,247.6668649,13.8163273,-99999.0,'11111222,11111222,99999999' 
TABS,ioos:station:wmo:42051:1,2011-10-02T12:30:00Z,29.6350,-93.6417,2.0,246.6993505,14.05637578,-99999.0,'11111222,11111222,99999999' 
TABS,ioos:station:wmo:42051:1,2011-10-02T13:00:00Z,29.6350,-93.6417,2.0,263.4824679,12.15856899,-99999.0,'11111222,11111222,99999999' 
TABS,ioos:station:wmo:42051:1,2011-10-02T13:30:00Z,29.6350,-93.6417,2.0,259.2090079,12.76572364,-99999.0,'11111222,11111222,99999999' 
TABS,ioos:station:wmo:42051:1,2011-10-02T14:00:00Z,29.6350,-93.6417,2.0,252.696546,14.0875335,-99999.0,'11111222,11111222,99999999' 
TABS,ioos:station:wmo:42051:1,2011-10-02T14:30:00Z,29.6350,-93.6417,2.0,255.2887226,16.06667358,-99999.0,'11111222,11111222,99999999' 
TABS,ioos:station:wmo:42051:1,2011-10-02T15:00:00Z,29.6350,-93.6417,2.0,252.6412741,15.82050568,-99999.0,'11111222,11111222,99999999' 
TABS,ioos:station:wmo:42051:1,2011-10-02T15:30:00Z,29.6350,-93.6417,2.0,253.8126345,15.96281304,-99999.0,'11111222,11111222,99999999' 
TABS,ioos:station:wmo:42051:1,2011-10-02T16:00:00Z,29.6350,-93.6417,2.0,245.5467323,15.8958265,-99999.0,'11111222,11111222,99999999' 
TABS,ioos:station:wmo:42051:1,2011-10-02T16:30:00Z,29.6350,-93.6417,2.0,245.0252413,14.66083899,-99999.0,'11111222,11111222,99999999' 
TABS,ioos:station:wmo:42051:1,2011-10-02T17:00:00Z,29.6350,-93.6417,2.0,253.619358,13.93563059,-99999.0,'11111222,11111222,99999999' 
TABS,ioos:station:wmo:42051:1,2011-10-02T17:30:00Z,29.6350,-93.6417,2.0,262.2133017,13.43385648,-99999.0,'11111222,11111222,99999999' 
TABS,ioos:station:wmo:42051:1,2011-10-02T18:00:00Z,29.6350,-93.6417,2.0,259.0209347,16.96040683,-99999.0,'11111222,11111222,99999999' 
TABS,ioos:station:wmo:42051:1,2011-10-02T18:30:00Z,29.6350,-93.6417,2.0,272.9654093,17.01277461,-99999.0,'11111222,11111222,99999999' 
TABS,ioos:station:wmo:42051:1,2011-10-02T19:00:00Z,29.6350,-93.6417,2.0,269.6570548,18.4003288,-99999.0,'11111222,11111222,99999999' 
TABS,ioos:station:wmo:42051:1,2011-10-02T19:30:00Z,29.6350,-93.6417,2.0,278.9989092,17.26245927,-99999.0,'11111222,11111222,99999999' 
TABS,ioos:station:wmo:42051:1,2011-10-02T20:00:00Z,29.6350,-93.6417,2.0,278.1438506,18.21365696,-99999.0,'11111222,11111222,99999999' 
TABS,ioos:station:wmo:42051:1,2011-10-02T20:30:00Z,29.6350,-93.6417,2.0,276.2358766,19.33438388,-99999.0,'11111222,11111222,99999999' 
TABS,ioos:station:wmo:42051:1,2011-10-02T21:00:00Z,29.6350,-93.6417,2.0,274.2275084,20.48572674,-99999.0,'11111222,11111222,99999999' 
TABS,ioos:station:wmo:42051:1,2011-10-02T21:30:00Z,29.6350,-93.6417,2.0,284.8292902,20.16149052,-99999.0,'11111222,11111222,99999999' 
TABS,ioos:station:wmo:42051:1,2011-10-02T22:00:00Z,29.6350,-93.6417,2.0,277.9022046,20.58545603,-99999.0,'11111222,11111222,99999999' 
TABS,ioos:station:wmo:42051:1,2011-10-02T22:30:00Z,29.6350,-93.6417,2.0,285.0069661,20.6233363,-99999.0,'11111222,11111222,99999999' 
TABS,ioos:station:wmo:42051:1,2011-10-02T23:00:00Z,29.6350,-93.6417,2.0,279.6677659,19.2939887,-99999.0,'11111222,11111222,99999999' 
TABS,ioos:station:wmo:42051:1,2011-10-02T23:30:00Z,29.6350,-93.6417,2.0,276.8034294,18.31897923,-99999.0,'11111222,11111222,99999999' 
TABS,ioos:station:wmo:42051:1,2011-10-03T00:00:00Z,29.6350,-93.6417,2.0,280.4052131,15.89131209,-99999.0,'11111222,11111222,99999999' 
TABS,ioos:station:wmo:42051:1,2011-10-03T00:30:00Z,29.6350,-93.6417,2.0,276.7938307,15.21683607,-99999.0,'11111222,11111222,99999999' 
TABS,ioos:station:wmo:42051:1,2011-10-03T01:00:00Z,29.6350,-93.6417,2.0,277.1917286,12.86117024,-99999.0,'11111222,11111222,99999999' 
TABS,ioos:station:wmo:42051:1,2011-10-03T01:30:00Z,29.6350,-93.6417,2.0,265.6384768,10.52046102,-99999.0,'11111222,11111222,99999999' 
TABS,ioos:station:wmo:42051:1,2011-10-03T02:00:00Z,29.6350,-93.6417,2.0,265.5339412,11.81587068,-99999.0,'11111222,11111222,99999999' 
TABS,ioos:station:wmo:42051:1,2011-10-03T02:30:00Z,29.6350,-93.6417,2.0,270.4844275,9.470337903,-99999.0,'11133222,11111222,99999999' 
TABS,ioos:station:wmo:42051:1,2011-10-03T03:00:00Z,29.6350,-93.6417,2.0,275.8375042,10.81608062,-99999.0,'11111222,11111222,99999999' 
TABS,ioos:station:wmo:42051:1,2011-10-03T03:30:00Z,29.6350,-93.6417,2.0,273.1377251,8.222323273,-99999.0,'11133222,11111222,99999999' 
TABS,ioos:station:wmo:42051:1,2011-10-03T04:00:00Z,29.6350,-93.6417,2.0,271.546586,7.782833674,-99999.0,'11133222,11111222,99999999' 
TABS,ioos:station:wmo:42051:1,2011-10-03T04:30:00Z,29.6350,-93.6417,2.0,290.4977135,4.569288785,-99999.0,'11133222,11111222,99999999' 
TABS,ioos:station:wmo:42051:1,2011-10-03T05:00:00Z,29.6350,-93.6417,2.0,248.4829379,6.352715955,-99999.0,'11133222,11111222,99999999' 
TABS,ioos:station:wmo:42051:1,2011-10-03T05:30:00Z,29.6350,-93.6417,2.0,252.9084603,7.281565766,-99999.0,'11133222,11111222,99999999' 
TABS,ioos:station:wmo:42051:1,2011-10-03T06:00:00Z,29.6350,-93.6417,2.0,274.422216,5.706986946,-99999.0,'11133222,11111222,99999999' 
TABS,ioos:station:wmo:42051:1,2011-10-03T06:30:00Z,29.6350,-93.6417,2.0,260.9461616,7.371838305,-99999.0,'11133222,11111222,99999999' 
TABS,ioos:station:wmo:42051:1,2011-10-03T07:00:00Z,29.6350,-93.6417,2.0,266.2089518,6.504229393,-99999.0,'11133222,11111222,99999999' 
TABS,ioos:station:wmo:42051:1,2011-10-03T07:30:00Z,29.6350,-93.6417,2.0,257.4903089,6.371247915,-99999.0,'11133222,11111222,99999999' 
TABS,ioos:station:wmo:42051:1,2011-10-03T08:00:00Z,29.6350,-93.6417,2.0,271.5078532,5.701973343,-99999.0,'11133222,11111222,99999999' 
TABS,ioos:station:wmo:42051:1,2011-10-03T08:30:00Z,29.6350,-93.6417,2.0,246.3315209,5.928684508,-99999.0,'11133222,11111222,99999999' 
TABS,ioos:station:wmo:42051:1,2011-10-03T09:00:00Z,29.6350,-93.6417,2.0,267.7557527,5.874504234,-99999.0,'11133222,11111222,99999999' 
TABS,ioos:station:wmo:42051:1,2011-10-03T09:30:00Z,29.6350,-93.6417,2.0,278.7387769,5.594944146,-99999.0,'11133222,11111222,99999999' 
TABS,ioos:station:wmo:42051:1,2011-10-03T10:00:00Z,29.6350,-93.6417,2.0,295.5504358,4.544403151,-99999.0,'11133222,11111222,99999999' 
TABS,ioos:station:wmo:42051:1,2011-10-03T10:30:00Z,29.6350,-93.6417,2.0,303.6370618,2.978741345,-99999.0,'11133222,11111222,99999999' 
TABS,ioos:station:wmo:42051:1,2011-10-03T11:00:00Z,29.6350,-93.6417,2.0,257.9309968,4.591481242,-99999.0,'11133222,11111222,99999999' 
TABS,ioos:station:wmo:42051:1,2011-10-03T11:30:00Z,29.6350,-93.6417,2.0,261.6171947,7.06547946,-99999.0,'11133222,11111222,99999999' 
TABS,ioos:station:wmo:42051:1,2011-10-03T12:00:00Z,29.6350,-93.6417,2.0,270.6991137,3.280243893,-99999.0,'11133222,11111222,99999999' 
TABS,ioos:station:wmo:42051:1,2011-10-03T12:30:00Z,29.6350,-93.6417,2.0,235.1595945,5.251295078,-99999.0,'11133222,11111222,99999999' 
TABS,ioos:station:wmo:42051:1,2011-10-03T13:00:00Z,29.6350,-93.6417,2.0,263.6006374,9.69037151,-99999.0,'11133222,11111222,99999999' 
TABS,ioos:station:wmo:42051:1,2011-10-03T13:30:00Z,29.6350,-93.6417,2.0,255.0864627,8.082233602,-99999.0,'11133222,11111222,99999999' 
TABS,ioos:station:wmo:42051:1,2011-10-03T14:00:00Z,29.6350,-93.6417,2.0,257.2359467,6.880007267,-99999.0,'11133222,11111222,99999999' 
TABS,ioos:station:wmo:42051:1,2011-10-03T14:30:00Z,29.6350,-93.6417,2.0,242.9573713,9.1279461,-99999.0,'11133222,11111222,99999999' 
TABS,ioos:station:wmo:42051:1,2011-10-03T15:00:00Z,29.6350,-93.6417,2.0,237.4687062,8.089184137,-99999.0,'11133222,11111222,99999999' 
TABS,ioos:station:wmo:42051:1,2011-10-03T15:30:00Z,29.6350,-93.6417,2.0,236.9574287,7.849509539,-99999.0,'11133222,11111222,99999999' 
TABS,ioos:station:wmo:42051:1,2011-10-03T16:00:00Z,29.6350,-93.6417,2.0,235.467278,11.13126228,-99999.0,'11111222,11111222,99999999' 
TABS,ioos:station:wmo:42051:1,2011-10-03T16:30:00Z,29.6350,-93.6417,2.0,246.3277659,10.80951433,-99999.0,'11111222,11111222,99999999' 
TABS,ioos:station:wmo:42051:1,2011-10-03T17:00:00Z,29.6350,-93.6417,2.0,251.9522517,13.5569945,-99999.0,'11111222,11111222,99999999' 
TABS,ioos:station:wmo:42051:1,2011-10-03T17:30:00Z,29.6350,-93.6417,2.0,249.9860591,11.24932887,-99999.0,'11111222,11111222,99999999' 
TABS,ioos:station:wmo:42051:1,2011-10-03T18:00:00Z,29.6350,-93.6417,2.0,252.2360202,12.68476645,-99999.0,'11111222,11111222,99999999' 
TABS,ioos:station:wmo:42051:1,2011-10-03T18:30:00Z,29.6350,-93.6417,2.0,255.136052,11.42219331,-99999.0,'11111222,11111222,99999999' 
TABS,ioos:station:wmo:42051:1,2011-10-03T19:00:00Z,29.6350,-93.6417,2.0,261.4073916,12.4497269,-99999.0,'11111222,11111222,99999999' 
TABS,ioos:station:wmo:42051:1,2011-10-03T19:30:00Z,29.6350,-93.6417,2.0,260.5752064,14.90112747,-99999.0,'11111222,11111222,99999999' 
TABS,ioos:station:wmo:42051:1,2011-10-03T20:00:00Z,29.6350,-93.6417,2.0,274.0519423,15.56890812,-99999.0,'11111222,11111222,99999999' 
TABS,ioos:station:wmo:42051:1,2011-10-03T20:30:00Z,29.6350,-93.6417,2.0,278.3455736,17.70749276,-99999.0,'11111222,11111222,99999999' 
TABS,ioos:station:wmo:42051:1,2011-10-03T21:00:00Z,29.6350,-93.6417,2.0,285.5321708,15.98369169,-99999.0,'11111222,11111222,99999999' 
TABS,ioos:station:wmo:42051:1,2011-10-03T21:30:00Z,29.6350,-93.6417,2.0,293.4784964,14.53316896,-99999.0,'11111222,11111222,99999999' 
TABS,ioos:station:wmo:42051:1,2011-10-03T22:00:00Z,29.6350,-93.6417,2.0,295.0975085,14.66447408,-99999.0,'11111222,11111222,99999999' 
TABS,ioos:station:wmo:42051:1,2011-10-03T22:30:00Z,29.6350,-93.6417,2.0,287.8697519,16.97909597,-99999.0,'11111222,11111222,99999999' 
TABS,ioos:station:wmo:42051:1,2011-10-03T23:00:00Z,29.6350,-93.6417,2.0,295.4684282,15.65087218,-99999.0,'11111222,11111222,99999999' 
TABS,ioos:station:wmo:42051:1,2011-10-03T23:30:00Z,29.6350,-93.6417,2.0,289.8469959,12.19428145,-99999.0,'11111222,11111222,99999999' 
TABS,ioos:station:wmo:42051:1,2011-10-04T00:00:00Z,29.6350,-93.6417,2.0,281.0200779,7.742764364,-99999.0,'11133222,11111222,99999999' 
TABS,ioos:station:wmo:42051:1,2011-10-04T00:30:00Z,29.6350,-93.6417,2.0,291.9577917,5.455749261,-99999.0,'11133222,11111222,99999999' 
TABS,ioos:station:wmo:42051:1,2011-10-04T01:00:00Z,29.6350,-93.6417,2.0,282.5212272,7.795396077,-99999.0,'11133222,11111222,99999999' 
TABS,ioos:station:wmo:42051:1,2011-10-04T01:30:00Z,29.6350,-93.6417,2.0,272.8205868,6.097384685,-99999.0,'11133222,11111222,99999999' 
TABS,ioos:station:wmo:42051:1,2011-10-04T02:00:00Z,29.6350,-93.6417,2.0,278.3710003,7.075372782,-99999.0,'11133222,11111222,99999999' 
TABS,ioos:station:wmo:42051:1,2011-10-04T02:30:00Z,29.6350,-93.6417,2.0,251.7881923,4.863620051,-99999.0,'11133222,11111222,99999999' 
TABS,ioos:station:wmo:42051:1,2011-10-04T03:00:00Z,29.6350,-93.6417,2.0,252.8968901,4.760514678,-99999.0,'11133222,11111222,99999999' 
TABS,ioos:station:wmo:42051:1,2011-10-04T03:30:00Z,29.6350,-93.6417,2.0,253.7233542,4.281600168,-99999.0,'11133222,11111222,99999999' 
TABS,ioos:station:wmo:42051:1,2011-10-04T04:00:00Z,29.6350,-93.6417,2.0,235.3529801,5.980501651,-99999.0,'11133222,11111222,99999999' 
TABS,ioos:station:wmo:42051:1,2011-10-04T04:30:00Z,29.6350,-93.6417,2.0,248.9072889,7.502666193,-99999.0,'11133222,11111222,99999999' 
TABS,ioos:station:wmo:42051:1,2011-10-04T05:00:00Z,29.6350,-93.6417,2.0,245.5077353,3.955957533,-99999.0,'11133222,11111222,99999999' 
TABS,ioos:station:wmo:42051:1,2011-10-04T05:30:00Z,29.6350,-93.6417,2.0,243.098549,4.57507377,-99999.0,'11133222,11111222,99999999' 
TABS,ioos:station:wmo:42051:1,2011-10-04T06:00:00Z,29.6350,-93.6417,2.0,233.5424542,6.664172867,-99999.0,'11133222,11111222,99999999' 
TABS,ioos:station:wmo:42051:1,2011-10-04T06:30:00Z,29.6350,-93.6417,2.0,241.1515873,4.041546734,-99999.0,'11133222,11111222,99999999' 
TABS,ioos:station:wmo:42051:1,2011-10-04T07:00:00Z,29.6350,-93.6417,2.0,229.1410653,3.622775179,-99999.0,'11133222,11111222,99999999' 
TABS,ioos:station:wmo:42051:1,2011-10-04T07:30:00Z,29.6350,-93.6417,2.0,211.7249532,5.419833946,-99999.0,'11133222,11111222,99999999' 
TABS,ioos:station:wmo:42051:1,2011-10-04T08:00:00Z,29.6350,-93.6417,2.0,221.268296,1.955760722,-99999.0,'11133222,11111222,99999999' 
TABS,ioos:station:wmo:42051:1,2011-10-04T08:30:00Z,29.6350,-93.6417,2.0,180.3754933,3.050065573,-99999.0,'11133222,11111222,99999999' 
TABS,ioos:station:wmo:42051:1,2011-10-04T09:00:00Z,29.6350,-93.6417,2.0,235.2884485,4.513202854,-99999.0,'11133222,11111222,99999999' 
TABS,ioos:station:wmo:42051:1,2011-10-04T09:30:00Z,29.6350,-93.6417,2.0,222.0489121,2.747216773,-99999.0,'11133222,11111222,99999999' 
TABS,ioos:station:wmo:42051:1,2011-10-04T10:00:00Z,29.6350,-93.6417,2.0,192.7728325,4.070737034,-99999.0,'11133222,11111222,99999999' 
TABS,ioos:station:wmo:42051:1,2011-10-04T10:30:00Z,29.6350,-93.6417,2.0,217.6473221,2.210203611,-99999.0,'11133222,11111222,99999999' 
TABS,ioos:station:wmo:42051:1,2011-10-04T11:00:00Z,29.6350,-93.6417,2.0,244.2509235,3.452839411,-99999.0,'11133222,11111222,99999999' 
TABS,ioos:station:wmo:42051:1,2011-10-04T11:30:00Z,29.6350,-93.6417,2.0,225.1748998,2.312249986,-99999.0,'11133222,11111222,99999999' 
TABS,ioos:station:wmo:42051:1,2011-10-04T12:00:00Z,29.6350,-93.6417,2.0,294.9631524,5.118124657,-99999.0,'11133222,11111222,99999999' 
TABS,ioos:station:wmo:42051:1,2011-10-04T12:30:00Z,29.6350,-93.6417,2.0,272.7579425,4.36505441,-99999.0,'11133222,11111222,99999999' 
TABS,ioos:station:wmo:42051:1,2011-10-04T13:00:00Z,29.6350,-93.6417,2.0,266.9955661,6.86943957,-99999.0,'11133222,11111222,99999999' 
TABS,ioos:station:wmo:42051:1,2011-10-04T13:30:00Z,29.6350,-93.6417,2.0,256.4888297,7.404924037,-99999.0,'11133222,11111222,99999999' 
TABS,ioos:station:wmo:42051:1,2011-10-04T14:00:00Z,29.6350,-93.6417,2.0,274.97015,4.617358552,-99999.0,'11133222,11111222,99999999' 
TABS,ioos:station:wmo:42051:1,2011-10-04T14:30:00Z,29.6350,-93.6417,2.0,261.3375471,5.179073276,-99999.0,'11133222,11111222,99999999' 
TABS,ioos:station:wmo:42051:1,2011-10-04T15:00:00Z,29.6350,-93.6417,2.0,268.9843195,7.901240409,-99999.0,'11133222,11111222,99999999' 
TABS,ioos:station:wmo:42051:1,2011-10-04T15:30:00Z,29.6350,-93.6417,2.0,251.5646734,8.569772459,-99999.0,'11133222,11111222,99999999' 
TABS,ioos:station:wmo:42051:1,2011-10-04T16:00:00Z,29.6350,-93.6417,2.0,264.1414783,6.956328054,-99999.0,'11133222,11111222,99999999' 